Weather History for Indianapolis, IN

Change the Weather History Date:

Thursday, March 14, 2013

  Actual Average (KEYE) Record (KEYE)
Temperature  
Mean Temperature 30 °F 42 °F  
Max Temperature 41 °F 51 °F 80 °F (2012)
Min Temperature 21 °F 33 °F 19 °F (2005)
Degree Days  
Heating Degree Days 34 23  
Month to date heating degree days 361  
Since 1 July heating degree days 4486  
Cooling Degree Days 0 0  
Month to date cooling degree days 0  
Year to date cooling degree days 0  
Moisture  
Dew Point 20 °F    
Average Humidity 66    
Maximum Humidity 87    
Minimum Humidity 38    
Precipitation  
Precipitation 0.00 in 0.12 in 0.55 in (1997)
Month to date precipitation 1.10  
Year to date precipitation 5.44  
Sea Level Pressure  
Sea Level Pressure 30.27 in    
Wind  
Wind Speed 6 mph (WSW)    
Max Wind Speed 12 mph    
Max Gust Speed 18 mph    
Visibility 10 miles    
Events      
T = Trace of Precipitation, MM = Missing Value Source: NWS Daily Summary

Daily Weather History Graph

Daily Weather History Graph

Search for Another Location

Airport:

Trip Planner

Search our weather history database for the weather conditions in past years. The results will help you decide how hot, cold, wet, or windy it might be!

Date:

Astronomy

Mar. 14, 2013 Rise Set
Actual Time 7:57 AM EDT 7:51 PM EDT
Civil Twilight 7:30 AM EDT 8:18 PM EDT
Nautical Twilight 6:59 AM EDT 8:49 PM EDT
Astronomical Twilight 6:27 AM EDT 9:21 PM EDT
Moon 9:11 AM EDT (3/14) 11:06 PM EDT (3/14)
Length of Visible Light 12h 47m
Length of Day
11h 53m
Waxing Crescent, 9% of the Moon is Illuminated
Mar 14
Waxing Crescent
Mar 19
First Quarter
Mar 27
Full
Apr 3
Last Quarter
Apr 10
New

Hourly Weather History & Observations

Time (EDT) Temp. Windchill Dew Point Humidity Pressure Visibility Wind Dir Wind Speed Gust Speed Precip Events Conditions
12:15 AM 26.2 °F 19.6 °F 16.7 °F 67% 30.32 in 10.0 mi WNW 5.8 mph - N/A   Clear
12:35 AM 26.1 °F 18.4 °F 16.7 °F 68% 30.32 in 10.0 mi WNW 6.9 mph - N/A   Clear
12:55 AM 25.7 °F 20.1 °F 15.8 °F 66% 30.32 in 10.0 mi WNW 4.6 mph - N/A   Clear
1:35 AM 24.8 °F 17.9 °F 15.8 °F 69% 30.31 in 10.0 mi West 5.8 mph - N/A   Clear
1:55 AM 24.6 °F 18.8 °F 16.3 °F 71% 30.32 in 10.0 mi West 4.6 mph - N/A   Clear
2:15 AM 24.6 °F 16.7 °F 16.5 °F 71% 30.32 in 10.0 mi West 6.9 mph - N/A   Clear
2:35 AM 24.4 °F 17.5 °F 16.5 °F 72% 30.32 in 10.0 mi West 5.8 mph - N/A   Clear
2:55 AM 24.3 °F 18.4 °F 16.7 °F 73% 30.32 in 10.0 mi West 4.6 mph - N/A   Clear
3:15 AM 23.7 °F 19.3 °F 16.5 °F 74% 30.32 in 10.0 mi West 3.5 mph - N/A   Clear
3:35 AM 23.5 °F 19.1 °F 16.3 °F 74% 30.33 in 10.0 mi WSW 3.5 mph - N/A   Clear
3:55 AM 22.5 °F 17.8 °F 16.2 °F 77% 30.33 in 10.0 mi West 3.5 mph - N/A   Clear
4:15 AM 22.3 °F 17.6 °F 16.7 °F 79% 30.33 in 10.0 mi WSW 3.5 mph - N/A   Clear
4:35 AM 22.6 °F 18.0 °F 17.1 °F 79% 30.33 in 10.0 mi WSW 3.5 mph - N/A   Clear
4:55 AM 22.1 °F 17.4 °F 17.1 °F 81% 30.33 in 10.0 mi WSW 3.5 mph - N/A   Clear
5:15 AM 22.1 °F 17.4 °F 17.1 °F 81% 30.32 in 10.0 mi WSW 3.5 mph - N/A   Clear
5:35 AM 22.1 °F 14.7 °F 16.7 °F 80% 30.32 in 10.0 mi West 5.8 mph - N/A   Clear
5:55 AM 22.1 °F 15.9 °F 16.7 °F 80% 30.31 in 10.0 mi WSW 4.6 mph - N/A   Clear
6:15 AM 22.5 °F 16.3 °F 16.7 °F 79% 30.31 in 10.0 mi WSW 4.6 mph - N/A   Clear
6:35 AM 21.6 °F 16.8 °F 16.2 °F 80% 30.31 in 10.0 mi SW 3.5 mph - N/A   Clear
6:55 AM 21.6 °F 15.3 °F 16.7 °F 82% 30.31 in 10.0 mi WSW 4.6 mph - N/A   Clear
7:15 AM 21.9 °F 15.7 °F 16.9 °F 81% 30.31 in 10.0 mi WSW 4.6 mph - N/A   Clear
7:35 AM 21.2 °F - 16.7 °F 83% 30.31 in 10.0 mi Calm Calm - N/A   Clear
7:55 AM 21.7 °F - 17.4 °F 83% 30.31 in 10.0 mi Calm Calm - N/A   Clear
8:15 AM 21.9 °F 15.7 °F 17.6 °F 83% 30.31 in 10.0 mi SW 4.6 mph - N/A   Clear
8:35 AM 23.0 °F 17.0 °F 18.5 °F 83% 30.32 in 10.0 mi WSW 4.6 mph - N/A   Clear
8:55 AM 24.6 °F 18.8 °F 19.8 °F 82% 30.32 in 10.0 mi WSW 4.6 mph - N/A   Clear
9:15 AM 26.4 °F 19.8 °F 20.3 °F 78% 30.32 in 10.0 mi WSW 5.8 mph - N/A   Clear
9:55 AM 28.4 °F 21.2 °F 20.5 °F 72% 30.33 in 10.0 mi WSW 6.9 mph - N/A   Clear
10:15 AM 29.8 °F 22.2 °F 19.9 °F 67% 30.34 in 10.0 mi WSW 8.1 mph - N/A   Clear
10:35 AM 30.9 °F 22.8 °F 19.0 °F 61% 30.34 in 10.0 mi WSW 9.2 mph - N/A   Clear
10:55 AM 31.8 °F 22.8 °F 19.8 °F 61% 30.33 in 10.0 mi West 11.5 mph - N/A   Clear
11:15 AM 32.0 °F 24.2 °F 19.9 °F 61% 30.33 in 10.0 mi WSW 9.2 mph - N/A   Scattered Clouds
11:35 AM 33.1 °F 25.5 °F 19.8 °F 58% 30.32 in 10.0 mi West 9.2 mph - N/A   Scattered Clouds
11:55 AM 33.8 °F 25.3 °F 20.7 °F 59% 30.32 in 10.0 mi WSW 11.5 mph - N/A   Clear
12:15 PM 34.2 °F 26.8 °F 20.1 °F 57% 30.31 in 10.0 mi SW 9.2 mph - N/A   Clear
12:35 PM 34.9 °F 27.7 °F 19.6 °F 54% 30.31 in 10.0 mi SW 9.2 mph - N/A   Clear
12:55 PM 35.8 °F 28.3 °F 19.8 °F 52% 30.30 in 10.0 mi WSW 10.4 mph - N/A   Clear
1:15 PM 35.6 °F 29.2 °F 18.1 °F 49% 30.29 in 10.0 mi SW 8.1 mph - N/A   Mostly Cloudy
1:35 PM 35.8 °F 29.4 °F 18.0 °F 48% 30.29 in 10.0 mi West 8.1 mph - N/A   Overcast
1:55 PM 36.5 °F 29.7 °F 17.6 °F 46% 30.28 in 10.0 mi WSW 9.2 mph - N/A   Overcast
2:15 PM 37.0 °F 31.0 °F 16.7 °F 44% 30.28 in 10.0 mi West 8.1 mph - N/A   Mostly Cloudy
2:35 PM 37.4 °F 30.3 °F 14.7 °F 40% 30.27 in 10.0 mi WSW 10.4 mph - N/A   Mostly Cloudy
2:55 PM 38.1 °F 32.9 °F 15.6 °F 40% 30.26 in 10.0 mi WSW 6.9 mph - N/A   Mostly Cloudy
3:15 PM 39.2 °F 32.5 °F 17.8 °F 42% 30.25 in 10.0 mi WSW 10.4 mph - N/A   Scattered Clouds
3:35 PM 40.1 °F 34.7 °F 18.7 °F 42% 30.24 in 10.0 mi WSW 8.1 mph 11.5 mph N/A   Scattered Clouds
3:55 PM 40.6 °F 33.8 °F 16.9 °F 38% 30.23 in 10.0 mi West 11.5 mph 18.4 mph N/A   Scattered Clouds
4:15 PM 40.5 °F 35.1 °F 20.5 °F 45% 30.23 in 10.0 mi West 8.1 mph - N/A   Overcast
4:35 PM 40.1 °F 33.2 °F 19.6 °F 44% 30.22 in 10.0 mi West 11.5 mph - N/A   Overcast
4:55 PM 40.3 °F 33.9 °F 19.2 °F 43% 30.22 in 10.0 mi West 10.4 mph - N/A   Overcast
5:15 PM 39.9 °F 33.4 °F 18.7 °F 42% 30.22 in 10.0 mi WSW 10.4 mph - N/A   Overcast
5:55 PM 39.6 °F 35.4 °F 19.0 °F 44% 30.21 in 10.0 mi WSW 5.8 mph - N/A   Overcast
6:15 PM 39.4 °F 32.7 °F 20.7 °F 47% 30.20 in 10.0 mi West 10.4 mph 16.1 mph N/A   Mostly Cloudy
6:35 PM 38.8 °F 32.6 °F 21.4 °F 50% 30.19 in 10.0 mi WSW 9.2 mph - N/A   Mostly Cloudy
6:55 PM 38.7 °F 34.3 °F 21.6 °F 50% 30.19 in 10.0 mi WSW 5.8 mph - N/A   Mostly Cloudy
7:15 PM 38.3 °F 34.8 °F 22.8 °F 54% 30.19 in 10.0 mi WSW 4.6 mph - N/A   Overcast
7:35 PM 37.8 °F 31.8 °F 25.0 °F 60% 30.19 in 10.0 mi SW 8.1 mph - N/A   Mostly Cloudy
7:55 PM 36.3 °F 28.9 °F 24.4 °F 62% 30.21 in 10.0 mi WSW 10.4 mph - N/A   Scattered Clouds
8:15 PM 36.0 °F 28.5 °F 25.3 °F 65% 30.21 in 10.0 mi SW 10.4 mph - N/A   Mostly Cloudy
8:35 PM 35.2 °F 27.1 °F 26.8 °F 71% 30.21 in 10.0 mi WSW 11.5 mph - N/A   Overcast
8:55 PM 33.8 °F 25.8 °F 27.5 °F 78% 30.22 in 10.0 mi WSW 10.4 mph - N/A   Overcast
9:15 PM 33.8 °F 27.7 °F 28.2 °F 80% 30.22 in 10.0 mi SW 6.9 mph - N/A   Overcast
9:55 PM 33.4 °F 26.6 °F 28.8 °F 83% 30.18 in 10.0 mi South 8.1 mph - N/A   Overcast
10:15 PM 33.3 °F 26.4 °F 28.9 °F 84% 30.18 in 10.0 mi SSW 8.1 mph - N/A   Overcast
10:35 PM 33.3 °F 25.7 °F 29.1 °F 85% 30.18 in 10.0 mi SW 9.2 mph - N/A   Overcast
10:55 PM 33.1 °F 24.9 °F 29.1 °F 85% 30.16 in 10.0 mi SSW 10.4 mph - N/A   Overcast
11:15 PM 33.1 °F 25.5 °F 29.3 °F 86% 30.17 in 10.0 mi SSW 9.2 mph - N/A   Overcast
11:55 PM 32.4 °F 24.0 °F 28.9 °F 87% 30.15 in 10.0 mi SSW 10.4 mph - N/A   Mostly Cloudy